EW5586 Weather Reports


time (UTC)temp
C
wind
direction
speed
KPH
gust
KPH
rain 1hr
cm
rain 24hr
cm
rain mn
cm
humidity
%
barometer
mb
20260507042818 -17 0.0 0.0 0.00 0.03 0.00 1009.1
20260507041739 -17 0.0 0.0 0.00 0.03 0.00 1009.0
20260507041148 -17 0.0 0.0 0.00 0.03 0.00 1009.0
20260507040643 -17 0.0 0.0 0.00 0.03 0.00 1009.2
20260507040140 -17 0.0 0.0 0.00 0.03 0.00 1009.1
20260507035639 -17 0.0 0.0 0.00 0.03 0.03 1009.1
20260507035136 -17 0.0 0.0 0.00 0.03 0.03 1009.0
20260507034545 -17 0.0 0.0 0.00 0.03 0.03 1009.1
20260507033536 -17 0.0 0.0 0.00 0.03 0.03 1009.2
20260507032945 -17 0.0 0.0 0.00 0.03 0.03 1009.2
20260507032445 -17 0.0 0.0 0.00 0.03 0.03 1009.2
20260507031942 -17 0.0 0.0 0.00 0.03 0.03 1009.2
20260507031343 -17 0.0 0.0 0.00 0.03 0.03 1009.2
20260507030845 -17 0.0 0.0 0.00 0.03 0.03 1009.2
20260507030344 -17 0.0 0.0 0.00 0.03 0.03 1009.3
20260507025836 -17 0.0 0.0 0.00 0.03 0.03 1009.4
20260507025243 -17 0.0 0.0 0.00 0.03 0.03 1009.4
20260507024144 -17 0.0 0.0 0.00 0.03 0.03 1009.4
20260507023639 -17 0.0 0.0 0.00 0.03 0.03 1009.5
20260507022542 -17 0.0 0.0 0.00 0.03 0.03 1009.3
20260507022028 -17 0.0 0.0 0.00 0.03 0.03 1009.4
20260507020938 -17 0.0 0.0 0.00 0.03 0.03 1009.5
20260507020342 -17 0.0 0.0 0.00 0.03 0.03 1009.7
20260507015840 -17 0.0 0.0 0.00 0.03 0.03 1009.7
20260507015334 -17 0.0 0.0 0.00 0.03 0.03 1009.7
20260507014740 -17 0.0 0.0 0.00 0.03 0.03 1009.7
20260507014148 -17 0.0 0.0 0.00 0.03 0.03 1009.7
20260507013639 -17 0.0 0.0 0.00 0.03 0.03 1009.7
20260507013045 -17 0.0 0.0 0.00 0.05 0.03 1009.8
20260507011527 -17 0.0 0.0 0.00 0.05 0.03 1009.5
20260507010430 -17 0.0 0.0 0.00 0.05 0.03 1009.5
20260507005836 -17 0.0 0.0 0.00 0.10 0.03 1009.4
20260507005249 -17 0.0 0.0 0.00 0.10 0.03 1009.3
20260507004232 -17 0.0 0.0 0.00 0.13 0.03 1009.4
20260507003638 -17 0.0 0.0 0.00 0.13 0.03 1009.5
20260507003048 -17 0.0 0.0 0.00 0.13 0.03 1009.4
20260507002530 -17 0.0 0.0 0.00 0.13 0.03 1009.3
20260507001941 -17 0.0 0.0 0.00 0.13 0.03 1009.3
20260507001346 -17 0.0 0.0 0.00 0.13 0.03 1009.2
20260507000840 -17 0.0 0.0 0.00 0.13 0.03 1009.0
20260506235738 -17 0.0 0.0 0.00 0.15 0.03 1009.1
20260506235236 -17 0.0 0.0 0.00 0.15 0.03 1009.0
20260506234734 -17 0.0 0.0 0.00 0.15 0.03 1009.0
20260506234148 -17 0.0 0.0 0.00 0.15 0.03 1009.0
20260506232639 -17 0.0 0.0 0.00 0.20 0.03 1009.0
20260506232137 -17 0.0 0.0 0.00 0.23 0.03 1008.9
20260506231542 -17 0.0 0.0 0.00 0.23 0.03 1009.0
20260506230450 -17 0.0 0.0 0.00 0.23 0.03 1008.9
20260506225943 -17 0.0 0.0 0.00 0.23 0.03 1008.9
20260506225432 -17 0.0 0.0 0.00 0.23 0.03 1008.8
20260506224843 -17 0.0 0.0 0.00 0.23 0.03 1008.8
20260506224246 -17 0.0 0.0 0.00 0.23 0.03 1008.7
20260506223146 -17 0.0 0.0 0.00 0.23 0.03 1008.8
20260506222639 -17 0.0 0.0 0.00 0.23 0.03 1008.8
20260506222045 -17 0.0 0.0 0.00 0.23 0.03 1008.8
20260506221542 -17 0.0 0.0 0.00 0.23 0.03 1008.7
20260506221040 -17 0.0 0.0 0.00 0.23 0.03 1008.7
20260506220537 -17 0.0 0.0 0.00 0.23 0.03 1008.7
20260506215944 -17 0.0 0.0 0.00 0.23 0.03 1008.8
20260506215439 -17 0.0 0.0 0.00 0.23 0.03 1008.8
20260506214845 -17 0.0 0.0 0.00 0.23 0.03 1008.7
20260506214342 -17 0.0 0.0 0.00 0.23 0.03 1008.7
20260506213838 -17 0.0 0.0 0.00 0.23 0.03 1008.6
20260506212746 -17 0.0 0.0 0.00 0.23 0.03 1008.7
20260506212246 -17 0.0 0.0 0.00 0.23 0.03 1008.5
20260506211734 -17 0.0 0.0 0.00 0.23 0.03 1008.5
20260506205618 -17 0.0 0.0 0.00 0.23 0.03 1008.7
20260506205035 -17 0.0 0.0 0.00 0.23 0.03 1008.7
20260506204536 -17 0.0 0.0 0.00 0.23 0.03 1008.8
20260506203945 -17 0.0 0.0 0.00 0.23 0.03 1008.8
20260506203443 -17 0.0 0.0 0.00 0.23 0.03 1008.6
20260506202934 -17 0.0 0.0 0.00 0.23 0.03 1008.5
20260506202338 -17 0.0 0.0 0.00 0.23 0.03 1008.4
20260506201835 -17 0.0 0.0 0.00 0.23 0.03 1008.5
20260506200245 -17 0.0 0.0 0.00 0.23 0.03 1008.6
20260506195743 -17 0.0 0.0 0.00 0.23 0.03 1008.5
20260506195153 -17 0.0 0.0 0.00 0.23 0.03 1008.6
20260506194049 -17 0.0 0.0 0.00 0.23 0.03 1008.6
20260506192446 -17 0.0 0.0 0.00 0.23 0.03 1009.0
20260506191944 -17 0.0 0.0 0.00 0.23 0.03 1008.9
20260506191436 -17 0.0 0.0 0.00 0.23 0.03 1008.9
20260506190841 -17 0.0 0.0 0.00 0.23 0.03 1008.8
20260506190247 -17 0.0 0.0 0.00 0.23 0.03 1008.9
20260506184640 -17 0.0 0.0 0.00 0.23 0.03 1008.9
20260506184046 -17 0.0 0.0 0.00 0.23 0.03 1008.8
20260506183539 -17 0.0 0.0 0.00 0.23 0.03 1008.8
20260506183037 -17 0.0 0.0 0.00 0.23 0.03 1008.7
20260506182442 -17 0.0 0.0 0.00 0.23 0.03 1008.7
20260506181940 -17 0.0 0.0 0.00 0.23 0.03 1008.8
20260506180932 -17 0.0 0.0 0.00 0.23 0.03 1009.0
20260506180337 -17 0.0 0.0 0.00 0.23 0.03 1009.0
20260506175824 -17 0.0 0.0 0.00 0.23 0.03 1008.9
20260506174153 -17 0.0 0.0 0.00 0.23 0.03 1008.8
20260506173643 -17 0.0 0.0 0.00 0.23 0.03 1008.8
20260506172539 -17 0.0 0.0 0.00 0.23 0.03 1008.7
20260506171948 -17 0.0 0.0 0.00 0.23 0.03 1008.7
20260506171445 -17 0.0 0.0 0.00 0.23 0.03 1008.6
20260506170346 -17 0.0 0.0 0.00 0.23 0.03 1008.8
20260506165835 -17 0.0 0.0 0.00 0.23 0.03 1008.9
20260506165244 -17 0.0 0.0 0.00 0.23 0.03 1009.0
20260506164650 -17 0.0 0.0 0.00 0.23 0.03 1008.9
20260506164144 -17 0.0 0.0 0.00 0.23 0.03 1008.9
20260506163641 -17 0.0 0.0 0.00 0.23 0.03 1009.0
20260506163141 -17 0.0 0.0 0.00 0.23 0.03 1009.2
20260506162545 -17 0.0 0.0 0.00 0.23 0.03 1009.2
20260506162043 -17 0.0 0.0 0.00 0.23 0.03 1009.2
20260506160948 -17 0.0 0.0 0.00 0.23 0.03 1009.5
20260506160439 -17 0.0 0.0 0.00 0.23 0.03 1009.9
20260506155847 -17 0.0 0.0 0.00 0.23 0.03 1009.9
20260506155347 -17 0.0 0.0 0.00 0.23 0.03 1009.8
20260506154837 -17 0.0 0.0 0.00 0.23 0.03 1009.8
20260506153744 -17 0.0 0.0 0.00 0.23 0.03 1009.8
20260506153240 -17 0.0 0.0 0.00 0.23 0.03 1009.7
20260506152650 -17 0.0 0.0 0.00 0.23 0.03 1009.5
20260506152146 -17 0.0 0.0 0.00 0.23 0.03 1009.4
20260506151628 -17 0.0 0.0 0.00 0.23 0.03 1009.5
20260506151043 -17 0.0 0.0 0.00 0.23 0.03 1009.5
20260506150537 -17 0.0 0.0 0.00 0.23 0.03 1009.8
20260506145947 -17 0.0 0.0 0.00 0.23 0.03 1009.7
20260506145448 -17 0.0 0.0 0.00 0.23 0.03 1009.5
20260506144941 -17 0.0 0.0 0.00 0.23 0.03 1009.5
20260506144437 -17 0.0 0.0 0.00 0.23 0.03 1009.5
20260506143846 -17 0.0 0.0 0.00 0.23 0.03 1009.4
20260506143340 -17 0.0 0.0 0.00 0.23 0.03 1009.4
20260506142840 -17 0.0 0.0 0.00 0.23 0.03 1009.5
20260506141747 -17 0.0 0.0 0.00 0.23 0.03 1009.5
20260506141237 -17 0.0 0.0 0.00 0.23 0.03 1009.5
20260506140722 -17 0.0 0.0 0.00 0.23 0.03 1009.5
20260506140145 -17 0.0 0.0 0.00 0.23 0.03 1009.5
20260506135638 -17 0.0 0.0 0.00 0.23 0.03 1009.5
20260506135129 -17 0.0 0.0 0.00 0.23 0.03 1009.5
20260506134041 -17 0.0 0.0 0.00 0.23 0.03 1009.5
20260506133525 -17 0.0 0.0 0.00 0.23 0.03 1009.4
20260506132938 -17 0.0 0.0 0.00 0.23 0.03 1009.4
20260506132417 -17 0.0 0.0 0.00 0.23 0.03 1009.4
20260506131841 -17 0.0 0.0 0.00 0.23 0.03 1009.4
20260506131341 -17 0.0 0.0 0.00 0.23 0.03 1009.5
20260506125151 -17 0.0 0.0 0.00 0.23 0.03 1009.4
20260506124645 -17 0.0 0.0 0.00 0.23 0.03 1009.3
20260506123551 -17 0.0 0.0 0.00 0.23 0.03 1009.5
20260506122450 -17 0.0 0.0 0.00 0.23 0.03 1009.5
20260506121950 -17 0.0 0.0 0.00 0.23 0.03 1009.3
20260506121440 -17 0.0 0.0 0.00 0.23 0.03 1009.5
20260506120344 -17 0.0 0.0 0.00 0.23 0.03 1009.7
20260506115837 -17 0.0 0.0 0.00 0.23 0.03 1009.4
20260506115333 -17 0.0 0.0 0.00 0.23 0.03 1009.5
20260506114747 -17 0.0 0.0 0.00 0.23 0.03 1009.5
20260506114246 -17 0.0 0.0 0.00 0.23 0.03 1009.7
20260506113739 -17 0.0 0.0 0.00 0.23 0.03 1009.7
20260506113233 -17 0.0 0.0 0.00 0.23 0.03 1009.9
20260506112641 -17 0.0 0.0 0.00 0.23 0.03 1009.9
20260506112129 -17 0.0 0.0 0.00 0.23 0.03 1010.0
20260506111545 -17 0.0 0.0 0.00 0.23 0.03 1010.0
20260506110538 -17 0.0 0.0 0.00 0.23 0.03 1010.0
20260506110034 -17 0.0 0.0 0.00 0.23 0.03 1010.0
20260506105447 -17 0.0 0.0 0.00 0.23 0.03 1010.0
20260506104944 -17 0.0 0.0 0.00 0.23 0.03 1009.9
20260506104429 -17 0.0 0.0 0.00 0.23 0.03 1009.5
20260506103249 -17 0.0 0.0 0.00 0.23 0.03 1009.8
20260506102747 -17 0.0 0.0 0.00 0.23 0.03 1009.8
20260506102233 -17 0.0 0.0 0.00 0.23 0.03 1009.7
20260506101640 -17 0.0 0.0 0.00 0.23 0.03 1009.7
20260506100544 -17 0.0 0.0 0.00 0.23 0.03 1009.5
20260506100045 -17 0.0 0.0 0.00 0.23 0.03 1009.8
20260506095543 -17 0.0 0.0 0.00 0.23 0.03 1009.7
20260506094449 -17 0.0 0.0 0.00 0.23 0.03 1009.3
20260506093946 -17 0.0 0.0 0.00 0.23 0.03 1009.2
20260506093436 -17 0.0 0.0 0.00 0.23 0.03 1009.1
20260506092850 -17 0.0 0.0 0.00 0.23 0.03 1009.2
20260506092330 -17 0.0 0.0 0.00 0.23 0.03 1009.3
20260506091741 -17 0.0 0.0 0.00 0.23 0.03 1009.2
20260506090634 -17 0.0 0.0 0.00 0.23 0.03 1009.5
20260506090055 -17 0.0 0.0 0.00 0.23 0.03 1009.5
20260506085546 -17 0.0 0.0 0.00 0.23 0.03 1009.9
20260506085044 -17 0.0 0.0 0.00 0.23 0.03 1009.9
20260506084543 -17 0.0 0.0 0.00 0.23 0.03 1009.9
20260506084041 -17 0.0 0.0 0.00 0.23 0.03 1010.0
20260506083539 -17 0.0 0.0 0.00 0.23 0.03 1010.0
20260506082947 -17 0.0 0.0 0.00 0.23 0.03 1010.0
20260506082441 -17 0.0 0.0 0.00 0.23 0.03 1009.8
20260506081846 -17 0.0 0.0 0.00 0.23 0.03 1009.8
20260506081337 7 0.0 0.0 0.00 0.23 0.03 92 1009.9
20260506080745 7 180 3.2 8.0 0.00 0.23 0.03 92 1009.8
20260506080222 7 180 3.2 9.7 0.00 0.23 0.03 92 1009.5
20260506073152 7 234 1.6 8.0 0.00 0.23 0.03 92 1009.2
20260506072646 7 208 3.2 8.0 0.00 0.23 0.03 92 1009.1
20260506072140 7 207 6.4 14.5 0.00 0.23 0.03 92 1009.0
20260506071128 7 219 8.0 16.1 0.03 0.23 0.03 92 1009.2
20260506070117 7 213 6.4 12.9 0.03 0.23 0.03 91 1009.2
20260506062027 7 158 14.5 22.5 0.03 0.23 0.03 93 1009.1
20260506061521 7 171 14.5 19.3 0.00 0.20 0.00 93 1009.3
20260506061015 7 0 14.5 22.5 0.00 0.20 0.00 93 1009.3
20260506060514 7 197 12.9 22.5 0.00 0.20 0.00 93 1009.3
20260506051011 7 221 14.5 19.3 0.00 0.20 0.00 92 1009.5
20260506044511 7 187 16.1 20.9 0.00 0.20 0.00 92 1009.4
20260506044012 7 195 16.1 22.5 0.00 0.20 0.00 93 1009.4
20260506043511 7 206 16.1 22.5 0.00 0.20 0.00 93 1009.4